This is the latest recevied weather packets stored in our database for station/object EA3CH. If no packets are shown the sender has not sent any weather packets the latest 10 day(s).
| Time | Temp. | Humidity | Pressure | Rain* | Wind** | Luminosity | Snow |
|---|---|---|---|---|---|---|---|
| 1788312605 | 17.78° C | 87% | 1021.6 hPa | 0 mm | - | 0 W/m² | - |
| 1788312604 | 17.78° C | 98% | 1021.8 hPa | 0 mm | - | 0 W/m² | - |
| 1788311704 | 17.78° C | 99% | 1021.9 hPa | 0 mm | - | 0 W/m² | - |
| 1788310804 | 17.78° C | 99% | 1022.1 hPa | 0 mm | - | 0 W/m² | - |
| 1788309905 | 18.33° C | 88% | 1021.9 hPa | 0 mm | - | 0 W/m² | - |
| 1788309903 | 17.78° C | 99% | 1022.1 hPa | 0 mm | - | 0 W/m² | - |
| 1788309006 | 17.78° C | 87% | 1021.8 hPa | 0 mm | - | 0 W/m² | - |
| 1788309004 | 17.78° C | 98% | 1022 hPa | 0 mm | - | 0 W/m² | - |
| 1788308103 | 17.78° C | 98% | 1021.9 hPa | 0 mm | - | 0 W/m² | - |
| 1788307204 | 18.33° C | 98% | 1022 hPa | 0 mm | - | 0 W/m² | - |
| 1788306305 | 18.89° C | 86% | 1021.7 hPa | 0 mm | - | 0 W/m² | - |
| 1788305404 | 17.78° C | 98% | 1021.8 hPa | 0 mm | - | 0 W/m² | - |
| 1788304503 | 17.78° C | 97% | 1021.6 hPa | 0 mm | - | 0 W/m² | - |
| 1788303605 | 18.33° C | 86% | 1021.4 hPa | 0 mm | - | 0 W/m² | - |
| 1788303604 | 17.78° C | 97% | 1021.6 hPa | 0 mm | - | 0 W/m² | - |
| 1788302705 | 18.33° C | 86% | 1021.4 hPa | 0 mm | - | 0 W/m² | - |
| 1788302704 | 17.78° C | 97% | 1021.7 hPa | 0 mm | - | 0 W/m² | - |
| 1788301804 | 18.33° C | 96% | 1021.6 hPa | 0 mm | - | 0 W/m² | - |
| 1788300904 | 18.33° C | 96% | 1021.5 hPa | 0 mm | - | 0 W/m² | - |
| 1788300005 | 18.89° C | 85% | 1021.3 hPa | 0 mm | - | 0 W/m² | - |
| 1788299105 | 19.44° C | 84% | 1021.1 hPa | 0 mm | - | 0 W/m² | - |
| 1788299104 | 18.33° C | 95% | 1021.2 hPa | 0 mm | - | 0 W/m² | - |
| 1788298205 | 19.44° C | 84% | 1021 hPa | 0 mm | - | 0 W/m² | - |
| 1788298204 | 18.89° C | 94% | 1021.1 hPa | 0 mm | - | 0 W/m² | - |
| 1788297304 | 18.89° C | 95% | 1021 hPa | 0 mm | - | 0 W/m² | - |
* Rain latest hour (hover to see other rain measurements)
** Current wind speed in m/s (hover to see current wind gust speed)